Find Starlink 32593

NORAD ID: 61974 Int'l Des: 2024-210 Owner: SPXS Country: US Constellation: starlink operational
LEOCIRCULAR

現在のビュー

3D地球を読み込み中...

About Starlink 32593

Starlink 32593 (NORAD 61974) is a starlink constellation satellite (v2 mini) launched Nov 14, 2024 by SPXS of US. It operates in LEO, CIRCULAR orbit with a mass of 730.00 kg.

次回通過

Passes for default location (London). Set your location on the main map for personalized predictions.

高度履歴

Loading altitude history...

軌道要素

1 61974U 24210R 26266.01584339 .00011378 00000-0 42219-3 0 9992
2 61974 43.0006 145.8381 0001065 288.8417 71.2319 15.27592005105052
Epoch: Sep 23, 2026 • Age: 15 hours

現在のステータス

高度 491.4 km
遠地点 / 近地点 N/A
速度 7.62 km/s
衛星直下点 -31.84°S, 128.65°E
打ち上げ日 Nov 14, 2024
運用期間 1.8 years
タイプ internet

技術仕様

分類 Payload
質量 730.00 kg
乾燥質量 700.00 kg
長さ 0.30 m
スパン 29.00 m
形状 ? Box + pan
製造者 SPXS
バスタイプ Starlink V2M
フェーズステータス In Orbit
所有者/国 SPXS/US

Most Searched